This demonstration page uses our WeatherBlox Daily Observations layout. Learn more.

Left ArrowRight Arrow

Hourly Observations for March 28, 2021

Temp ( °F °C ) Dew Point ( °F °C ) Humidity (%) Winds ( mph kmh ) Pressure ( in mb ) Visibility ( mi km ) Precip ( " mm )
12:51 am 00:51 Clear 50 10 24 -4.4 36 36 NNE 6 9 30.19 1022 10 16.0934 0 0
1:51 am 01:51 Clear 49 9.4 24 -4.4 38 38 NE 6 9 30.2 1023 10 16.0934 0 0
2:51 am 02:51 Clear 49 9.4 23 -5 36 36 Calm 30.2 1023 10 16.0934 0 0
3:51 am 03:51 Clear 44 6.7 23 -5 43 43 SE 5 7 30.21 1023 10 16.0934 0 0
4:51 am 04:51 Clear 43 6.1 24 -4.4 47 47 Calm 30.22 1023 10 16.0934 0 0
5:51 am 05:51 Clear 42 5.6 23 -5 47 47 Calm 30.25 1024 10 16.0934 0 0
6:51 am 06:51 Sunny 46 7.8 24 -4.4 42 42 SSE 3 6 30.26 1025 10 16.0934 0 0
7:51 am 07:51 Sunny 51 10.6 26 -3.3 38 38 WSW 3 6 30.28 1025 10 16.0934 0 0
8:51 am 08:51 Sunny 62 16.7 26 -3.3 25 25 ESE 6 9 30.27 1025 10 16.0934 0 0
9:51 am 09:51 Sunny 64 17.8 25 -3.9 23 23 SE 9 15 30.27 1025 10 16.0934 0 0
10:51 am 10:51 Sunny 67 19.4 25 -3.9 20 20 S 9 15 30.24 1024 10 16.0934 0 0
11:51 am 11:51 Sunny 72 22.2 24 -4.4 17 17 E 13 20 30.21 1023 10 16.0934 0 0
12:51 pm 12:51 Sunny 73 22.8 23 -5 15 15 ESE 10 17 30.17 1022 10 16.0934 0 0
1:51 pm 13:51 Sunny 75 23.9 25 -3.9 15 15 SE 13 20 30.12 1020 10 16.0934 0 0
2:51 pm 14:51 Sunny 78 25.6 23 -5 13 13 SE 16 26 30.08 1019 10 16.0934 0 0
3:51 pm 15:51 Sunny 78 25.6 22 -5.6 12 12 SE 6 9 30.07 1018 10 16.0934 0 0
4:51 pm 16:51 Sunny 78 25.6 21 -6.1 12 12 S 10 17 30.06 1018 10 16.0934 0 0
5:51 pm 17:51 Sunny 76 24.4 23 -5 14 14 SSE 9 15 30.06 1018 10 16.0934 0 0
6:51 pm 18:51 Clear 71 21.7 24 -4.4 17 17 SSE 7 11 30.06 1018 10 16.0934 0 0
7:51 pm 19:51 Clear 64 17.8 22 -5.6 20 20 E 5 7 30.07 1018 10 16.0934 0 0
8:51 pm 20:51 Clear 64 17.8 22 -5.6 20 20 E 8 13 30.06 1018 10 16.0934 0 0
9:51 pm 21:51 Clear 60 15.6 22 -5.6 23 23 SSE 8 13 30.07 1018 10 16.0934 0 0
10:51 pm 22:51 Clear 57 13.9 22 -5.6 26 26 ESE 8 13 30.06 1018 10 16.0934 0 0
11:51 pm 23:51 Clear 59 15 22 -5.6 24 24 SE 13 20 30.04 1017 10 16.0934 0 0

Powered by AerisWeather